sat.trackr.live / text

‹ back to catalog

ONEWEB-0257

NORAD 48975 · 2021-060J

PAYLOAD ACTIVE UNKNOWN

§ Identity

Operator
Country
UK
Launch date
2021-07-01
Launch site
VOSTO
Launch vehicle
Mass (kg)
RCS (m²)

Purposes: comms

External: N2YO · Heavens-Above · Gunter

§ Orbital elements

Epoch: 2026-09-20T04:11:57.972192Z

Period
109.37 min
Inclination
87.9156°
Eccentricity
0.0002076
Mean motion
13.16594034 rev/d
Perigee alt
1,196.2 km
Apogee alt
1,199.3 km
Semi-major
7,575.9 km
B*
-2.0556e-5
RAAN
209.9130°
Arg perigee
72.7017°
Mean anomaly
287.4341°
Rev number
25,208

§ Raw data

ONEWEB-02571 48975U 21060J   26263.17497653  .00000005  00000+0 -20556-4 0  99902 48975  87.9156 209.9130 0002076  72.7017 287.4341 13.16594034252086

JSON: /api/v1/satellites/48975 · /tle

For live sub-satellite position, see the globe view (requires WebGL).

§ Visibility from observer

Set your observer location to see the next 7 days of passes ≥ 10°. The values pass through the URL so the page stays shareable.

No JS? Fill the form by hand. The geolocation button needs JavaScript.